Year,Month,Day,Hour,Minute,Value (Times are PST for temperature in C)
2009,07,05,00,00,16.20
2009,07,05,00,01,16.20
2009,07,05,00,02,16.10
2009,07,05,00,03,16.10
2009,07,05,00,04,16.10
2009,07,05,00,05,16.10
2009,07,05,00,06,15.90
2009,07,05,00,07,15.90
2009,07,05,00,08,15.80
2009,07,05,00,09,15.80
2009,07,05,00,10,15.80
2009,07,05,00,11,15.70
2009,07,05,00,12,15.70
2009,07,05,00,13,15.70
2009,07,05,00,14,15.60
2009,07,05,00,15,15.60
2009,07,05,00,16,15.60
2009,07,05,00,17,15.50
2009,07,05,00,18,15.50
2009,07,05,00,19,15.50
2009,07,05,00,20,15.40
2009,07,05,00,21,15.40
2009,07,05,00,22,15.30
2009,07,05,00,23,15.30
2009,07,05,00,24,15.30
2009,07,05,00,25,15.30
2009,07,05,00,26,15.30
2009,07,05,00,27,15.20
2009,07,05,00,28,15.20
2009,07,05,00,29,15.20
2009,07,05,00,30,15.20
2009,07,05,00,31,15.10
2009,07,05,00,32,15.10
2009,07,05,00,33,15.10
2009,07,05,00,34,15.10
2009,07,05,00,35,15.10
2009,07,05,00,36,15.00
2009,07,05,00,37,15.00
2009,07,05,00,38,15.00
2009,07,05,00,39,15.00
2009,07,05,00,40,14.90
2009,07,05,00,41,14.90
2009,07,05,00,42,14.90
2009,07,05,00,43,14.90
2009,07,05,00,44,14.90
2009,07,05,00,45,14.80
2009,07,05,00,46,14.80
2009,07,05,00,47,14.80
2009,07,05,00,48,14.80
2009,07,05,00,49,14.80
2009,07,05,00,50,14.80
2009,07,05,00,51,14.80
2009,07,05,00,52,14.80
2009,07,05,00,53,14.80
2009,07,05,00,54,14.80
2009,07,05,00,55,14.80
2009,07,05,00,56,14.70
2009,07,05,00,57,14.70
2009,07,05,00,58,14.70
2009,07,05,00,59,14.70
2009,07,05,01,00,14.70
2009,07,05,01,01,14.60
2009,07,05,01,02,14.60
2009,07,05,01,03,14.60
2009,07,05,01,04,14.60
2009,07,05,01,05,14.60
2009,07,05,01,06,14.60
2009,07,05,01,07,14.50
2009,07,05,01,08,14.50
2009,07,05,01,09,14.50
2009,07,05,01,10,14.50
2009,07,05,01,11,14.50
2009,07,05,01,12,14.50
2009,07,05,01,13,14.50
2009,07,05,01,14,14.50
2009,07,05,01,15,14.50
2009,07,05,01,16,14.50
2009,07,05,01,17,14.50
2009,07,05,01,18,14.50
2009,07,05,01,19,14.50
2009,07,05,01,20,14.50
2009,07,05,01,21,14.50
2009,07,05,01,22,14.50
2009,07,05,01,23,14.50
2009,07,05,01,24,14.60
2009,07,05,01,25,14.60
2009,07,05,01,26,14.60
2009,07,05,01,27,14.60
2009,07,05,01,28,14.60
2009,07,05,01,29,14.60
2009,07,05,01,30,14.60
2009,07,05,01,31,14.60
2009,07,05,01,32,14.60
2009,07,05,01,33,14.60
2009,07,05,01,34,14.60
2009,07,05,01,35,14.60
2009,07,05,01,36,14.60
2009,07,05,01,37,14.60
2009,07,05,01,38,14.60
2009,07,05,01,39,14.60
2009,07,05,01,40,14.60
2009,07,05,01,41,14.60
2009,07,05,01,42,14.60
2009,07,05,01,43,14.60
2009,07,05,01,44,14.50
2009,07,05,01,45,14.50
2009,07,05,01,46,14.50
2009,07,05,01,47,14.50
2009,07,05,01,48,14.50
2009,07,05,01,49,14.50
2009,07,05,01,50,14.50
2009,07,05,01,51,14.50
2009,07,05,01,52,14.50
2009,07,05,01,53,14.50
2009,07,05,01,54,14.50
2009,07,05,01,55,14.50
2009,07,05,01,56,14.50
2009,07,05,01,57,14.50
2009,07,05,01,58,14.40
2009,07,05,01,59,14.40
2009,07,05,02,00,14.40
2009,07,05,02,01,14.40
2009,07,05,02,02,14.40
2009,07,05,02,03,14.40
2009,07,05,02,04,14.40
2009,07,05,02,05,14.40
2009,07,05,02,06,14.40
2009,07,05,02,07,14.40
2009,07,05,02,08,14.40
2009,07,05,02,09,14.40
2009,07,05,02,10,14.40
2009,07,05,02,11,14.40
2009,07,05,02,12,14.40
2009,07,05,02,13,14.40
2009,07,05,02,14,14.40
2009,07,05,02,15,14.40
2009,07,05,02,16,14.40
2009,07,05,02,17,14.40
2009,07,05,02,18,14.40
2009,07,05,02,19,14.40
2009,07,05,02,20,14.40
2009,07,05,02,21,14.40
2009,07,05,02,22,14.40
2009,07,05,02,23,14.40
2009,07,05,02,24,14.40
2009,07,05,02,25,14.40
2009,07,05,02,26,14.30
2009,07,05,02,27,14.30
2009,07,05,02,28,14.30
2009,07,05,02,29,14.30
2009,07,05,02,30,14.30
2009,07,05,02,31,14.30
2009,07,05,02,32,14.20
2009,07,05,02,33,14.20
2009,07,05,02,34,14.20
2009,07,05,02,35,14.20
2009,07,05,02,36,14.20
2009,07,05,02,37,14.20
2009,07,05,02,38,14.20
2009,07,05,02,39,14.20
2009,07,05,02,40,14.10
2009,07,05,02,41,14.10
2009,07,05,02,42,14.10
2009,07,05,02,43,14.10
2009,07,05,02,44,14.00
2009,07,05,02,45,14.00
2009,07,05,02,46,14.00
2009,07,05,02,47,14.00
2009,07,05,02,48,14.00
2009,07,05,02,49,14.00
2009,07,05,02,50,14.00
2009,07,05,02,51,14.00
2009,07,05,02,52,14.00
2009,07,05,02,53,14.00
2009,07,05,02,54,14.00
2009,07,05,02,55,13.90
2009,07,05,02,56,13.90
2009,07,05,02,57,13.90
2009,07,05,02,58,13.90
2009,07,05,02,59,13.90
2009,07,05,03,00,13.90
2009,07,05,03,01,13.90
2009,07,05,03,02,13.90
2009,07,05,03,03,13.80
2009,07,05,03,04,13.80
2009,07,05,03,05,13.80
2009,07,05,03,06,13.80
2009,07,05,03,07,13.80
2009,07,05,03,08,13.80
2009,07,05,03,09,13.80
2009,07,05,03,10,13.80
2009,07,05,03,11,13.70
2009,07,05,03,12,13.70
2009,07,05,03,13,13.70
2009,07,05,03,14,13.70
2009,07,05,03,15,13.70
2009,07,05,03,16,13.70
2009,07,05,03,17,13.70
2009,07,05,03,18,13.70
2009,07,05,03,19,13.70
2009,07,05,03,20,13.70
2009,07,05,03,21,13.70
2009,07,05,03,22,13.70
2009,07,05,03,23,13.70
2009,07,05,03,24,13.70
2009,07,05,03,25,13.70
2009,07,05,03,26,13.70
2009,07,05,03,27,13.70
2009,07,05,03,28,13.70
2009,07,05,03,29,13.70
2009,07,05,03,30,13.70
2009,07,05,03,31,13.70
2009,07,05,03,32,13.70
2009,07,05,03,33,13.70
2009,07,05,03,34,13.70
2009,07,05,03,35,13.70
2009,07,05,03,36,13.70
2009,07,05,03,37,13.70
2009,07,05,03,38,13.70
2009,07,05,03,39,13.70
2009,07,05,03,40,13.60
2009,07,05,03,41,13.60
2009,07,05,03,42,13.60
2009,07,05,03,43,13.50
2009,07,05,03,44,13.50
2009,07,05,03,45,13.50
2009,07,05,03,46,13.50
2009,07,05,03,47,13.40
2009,07,05,03,48,13.40
2009,07,05,03,49,13.40
2009,07,05,03,50,13.30
2009,07,05,03,51,13.30
2009,07,05,03,52,13.30
2009,07,05,03,53,13.30
2009,07,05,03,54,13.30
2009,07,05,03,55,13.30
2009,07,05,03,56,13.30
2009,07,05,03,57,13.30
2009,07,05,03,58,13.20
2009,07,05,03,59,13.20
2009,07,05,04,00,13.20
2009,07,05,04,01,13.20
2009,07,05,04,02,13.20
2009,07,05,04,03,13.20
2009,07,05,04,04,13.10
2009,07,05,04,05,13.10
2009,07,05,04,06,13.10
2009,07,05,04,07,13.10
2009,07,05,04,08,13.10
2009,07,05,04,09,13.10
2009,07,05,04,10,13.10
2009,07,05,04,11,13.10
2009,07,05,04,12,13.10
2009,07,05,04,13,13.10
2009,07,05,04,14,13.20
2009,07,05,04,15,13.20
2009,07,05,04,16,13.20
2009,07,05,04,17,13.20
2009,07,05,04,18,13.20
2009,07,05,04,19,13.30
2009,07,05,04,20,13.30
2009,07,05,04,21,13.30
2009,07,05,04,22,13.30
2009,07,05,04,23,13.30
2009,07,05,04,24,13.30
2009,07,05,04,25,13.30
2009,07,05,04,26,13.30
2009,07,05,04,27,13.30
2009,07,05,04,28,13.20
2009,07,05,04,29,13.20
2009,07,05,04,30,13.20
2009,07,05,04,31,13.20
2009,07,05,04,32,13.20
2009,07,05,04,33,13.20
2009,07,05,04,34,13.20
2009,07,05,04,35,13.20
2009,07,05,04,36,13.10
2009,07,05,04,37,13.10
2009,07,05,04,38,13.10
2009,07,05,04,39,13.10
2009,07,05,04,40,13.10
2009,07,05,04,41,13.10
2009,07,05,04,42,13.10
2009,07,05,04,43,13.10
2009,07,05,04,44,13.10
2009,07,05,04,45,13.00
2009,07,05,04,46,13.00
2009,07,05,04,47,13.00
2009,07,05,04,48,13.00
2009,07,05,04,49,12.90
2009,07,05,04,50,12.90
2009,07,05,04,51,12.90
2009,07,05,04,52,12.90
2009,07,05,04,53,12.90
2009,07,05,04,54,12.90
2009,07,05,04,55,12.90
2009,07,05,04,56,12.90
2009,07,05,04,57,12.80
2009,07,05,04,58,12.80
2009,07,05,04,59,12.80
2009,07,05,05,00,12.80
2009,07,05,05,01,12.80
2009,07,05,05,02,12.80
2009,07,05,05,03,12.80
2009,07,05,05,04,12.80
2009,07,05,05,05,12.80
2009,07,05,05,06,12.80
2009,07,05,05,07,12.80
2009,07,05,05,08,12.80
2009,07,05,05,09,12.80
2009,07,05,05,10,12.80
2009,07,05,05,11,12.80
2009,07,05,05,12,12.80
2009,07,05,05,13,12.80
2009,07,05,05,14,12.80
2009,07,05,05,15,12.80
2009,07,05,05,16,12.80
2009,07,05,05,17,12.80
2009,07,05,05,18,12.80
2009,07,05,05,19,12.80
2009,07,05,05,20,12.80
2009,07,05,05,21,12.80
2009,07,05,05,22,12.80
2009,07,05,05,23,12.80
2009,07,05,05,24,12.80
2009,07,05,05,25,12.80
2009,07,05,05,26,12.80
2009,07,05,05,27,12.80
2009,07,05,05,28,12.80
2009,07,05,05,29,12.80
2009,07,05,05,30,12.80
2009,07,05,05,31,12.90
2009,07,05,05,32,12.90
2009,07,05,05,33,12.90
2009,07,05,05,34,12.90
2009,07,05,05,35,12.90
2009,07,05,05,36,12.90
2009,07,05,05,37,12.90
2009,07,05,05,38,12.90
2009,07,05,05,39,13.00
2009,07,05,05,40,13.00
2009,07,05,05,41,13.00
2009,07,05,05,42,13.00
2009,07,05,05,43,13.10
2009,07,05,05,44,13.10
2009,07,05,05,45,13.20
2009,07,05,05,46,13.20
2009,07,05,05,47,13.30
2009,07,05,05,48,13.30
2009,07,05,05,49,13.30
2009,07,05,05,50,13.30
2009,07,05,05,51,13.30
2009,07,05,05,52,13.30
2009,07,05,05,53,13.30
2009,07,05,05,54,13.30
2009,07,05,05,55,13.30
2009,07,05,05,56,13.30
2009,07,05,05,57,13.40
2009,07,05,05,58,13.40
2009,07,05,05,59,13.40
2009,07,05,06,00,13.40
2009,07,05,06,01,13.40
2009,07,05,06,02,13.40
2009,07,05,06,03,13.40
2009,07,05,06,04,13.40
2009,07,05,06,05,13.50
2009,07,05,06,06,13.50
2009,07,05,06,07,13.50
2009,07,05,06,08,13.60
2009,07,05,06,09,13.60
2009,07,05,06,10,13.60
2009,07,05,06,11,13.70
2009,07,05,06,12,13.70
2009,07,05,06,13,13.70
2009,07,05,06,14,13.70
2009,07,05,06,15,13.70
2009,07,05,06,16,13.70
2009,07,05,06,17,13.70
2009,07,05,06,18,13.80
2009,07,05,06,19,13.80
2009,07,05,06,20,13.80
2009,07,05,06,21,13.80
2009,07,05,06,22,13.80
2009,07,05,06,23,13.90
2009,07,05,06,24,13.90
2009,07,05,06,25,13.90
2009,07,05,06,26,13.90
2009,07,05,06,27,13.90
2009,07,05,06,28,13.90
2009,07,05,06,29,14.00
2009,07,05,06,30,14.00
2009,07,05,06,31,14.00
2009,07,05,06,32,14.00
2009,07,05,06,33,14.00
2009,07,05,06,34,14.10
2009,07,05,06,35,14.10
2009,07,05,06,36,14.20
2009,07,05,06,37,14.20
2009,07,05,06,38,14.20
2009,07,05,06,39,14.20
2009,07,05,06,40,14.20
2009,07,05,06,41,14.20
2009,07,05,06,42,14.30
2009,07,05,06,43,14.30
2009,07,05,06,44,14.30
2009,07,05,06,45,14.30
2009,07,05,06,46,14.40
2009,07,05,06,47,14.40
2009,07,05,06,48,14.40
2009,07,05,06,49,14.40
2009,07,05,06,50,14.50
2009,07,05,06,51,14.50
2009,07,05,06,52,14.50
2009,07,05,06,53,14.60
2009,07,05,06,54,14.60
2009,07,05,06,55,14.70
2009,07,05,06,56,14.70
2009,07,05,06,57,14.70
2009,07,05,06,58,14.80
2009,07,05,06,59,14.80
2009,07,05,07,00,14.80
2009,07,05,07,01,14.80
2009,07,05,07,02,14.90
2009,07,05,07,03,14.90
2009,07,05,07,04,14.90
2009,07,05,07,05,14.90
2009,07,05,07,06,15.00
2009,07,05,07,07,15.00
2009,07,05,07,08,15.00
2009,07,05,07,09,15.10
2009,07,05,07,10,15.10
2009,07,05,07,11,15.10
2009,07,05,07,12,15.20
2009,07,05,07,13,15.20
2009,07,05,07,14,15.30
2009,07,05,07,15,15.30
2009,07,05,07,16,15.30
2009,07,05,07,17,15.30
2009,07,05,07,18,15.40
2009,07,05,07,19,15.50
2009,07,05,07,20,15.50
2009,07,05,07,21,15.60
2009,07,05,07,22,15.70
2009,07,05,07,23,15.80
2009,07,05,07,24,15.90
2009,07,05,07,25,16.00
2009,07,05,07,26,16.10
2009,07,05,07,27,16.10
2009,07,05,07,28,16.20
2009,07,05,07,29,16.30
2009,07,05,07,30,16.30
2009,07,05,07,31,16.40
2009,07,05,07,32,16.40
2009,07,05,07,33,16.40
2009,07,05,07,34,16.40
2009,07,05,07,35,16.60
2009,07,05,07,36,16.60
2009,07,05,07,37,16.70
2009,07,05,07,38,16.70
2009,07,05,07,39,16.80
2009,07,05,07,40,16.90
2009,07,05,07,41,16.90
2009,07,05,07,42,17.00
2009,07,05,07,43,17.10
2009,07,05,07,44,17.20
2009,07,05,07,45,17.30
2009,07,05,07,46,17.30
2009,07,05,07,47,17.40
2009,07,05,07,48,17.50
2009,07,05,07,49,17.60
2009,07,05,07,50,17.70
2009,07,05,07,51,17.70
2009,07,05,07,52,17.80
2009,07,05,07,53,17.80
2009,07,05,07,54,17.90
2009,07,05,07,55,18.00
2009,07,05,07,56,18.10
2009,07,05,07,57,18.10
2009,07,05,07,58,18.20
2009,07,05,07,59,18.30
2009,07,05,08,00,18.40
2009,07,05,08,01,18.50
2009,07,05,08,02,18.50
2009,07,05,08,03,18.60
2009,07,05,08,04,18.70
2009,07,05,08,05,18.90
2009,07,05,08,06,18.90
2009,07,05,08,07,19.00
2009,07,05,08,08,19.10
2009,07,05,08,09,19.10
2009,07,05,08,10,19.20
2009,07,05,08,11,19.10
2009,07,05,08,12,19.10
2009,07,05,08,13,19.10
2009,07,05,08,14,19.10
2009,07,05,08,15,19.10
2009,07,05,08,16,19.10
2009,07,05,08,17,19.10
2009,07,05,08,18,19.10
2009,07,05,08,19,19.10
2009,07,05,08,20,19.10
2009,07,05,08,21,19.10
2009,07,05,08,22,19.10
2009,07,05,08,23,19.10
2009,07,05,08,24,19.10
2009,07,05,08,25,19.20
2009,07,05,08,26,19.30
2009,07,05,08,27,19.30
2009,07,05,08,28,19.30
2009,07,05,08,29,19.40
2009,07,05,08,30,19.40
2009,07,05,08,31,19.40
2009,07,05,08,32,19.50
2009,07,05,08,33,19.50
2009,07,05,08,34,19.40
2009,07,05,08,35,19.40
2009,07,05,08,36,19.40
2009,07,05,08,37,19.40
2009,07,05,08,38,19.30
2009,07,05,08,39,19.30
2009,07,05,08,40,19.20
2009,07,05,08,41,19.20
2009,07,05,08,42,19.10
2009,07,05,08,43,19.10
2009,07,05,08,44,19.10
2009,07,05,08,45,19.20
2009,07,05,08,46,19.20
2009,07,05,08,47,19.30
2009,07,05,08,48,19.30
2009,07,05,08,49,19.40
2009,07,05,08,50,19.40
2009,07,05,08,51,19.40
2009,07,05,08,52,19.40
2009,07,05,08,53,19.50
2009,07,05,08,54,19.50
2009,07,05,08,55,19.50
2009,07,05,08,56,19.50
2009,07,05,08,57,19.50
2009,07,05,08,58,19.40
2009,07,05,08,59,19.40
2009,07,05,09,00,19.50
2009,07,05,09,01,19.40
2009,07,05,09,02,19.40
2009,07,05,09,03,19.40
2009,07,05,09,04,19.30
2009,07,05,09,05,19.30
2009,07,05,09,06,19.30
2009,07,05,09,07,19.30
2009,07,05,09,08,19.30
2009,07,05,09,09,19.30
2009,07,05,09,10,19.30
2009,07,05,09,11,19.30
2009,07,05,09,12,19.30
2009,07,05,09,13,19.30
2009,07,05,09,14,19.30
2009,07,05,09,15,19.30
2009,07,05,09,16,19.30
2009,07,05,09,17,19.20
2009,07,05,09,18,19.20
2009,07,05,09,19,19.20
2009,07,05,09,20,19.30
2009,07,05,09,21,19.30
2009,07,05,09,22,19.30
2009,07,05,09,23,19.30
2009,07,05,09,24,19.40
2009,07,05,09,25,19.40
2009,07,05,09,26,19.40
2009,07,05,09,27,19.50
2009,07,05,09,28,19.50
2009,07,05,09,29,19.50
2009,07,05,09,30,19.60
2009,07,05,09,31,19.60
2009,07,05,09,32,19.70
2009,07,05,09,33,19.70
2009,07,05,09,34,19.70
2009,07,05,09,35,19.80
2009,07,05,09,36,19.80
2009,07,05,09,37,19.80
2009,07,05,09,38,19.80
2009,07,05,09,39,19.80
2009,07,05,09,40,19.80
2009,07,05,09,41,19.80
2009,07,05,09,42,19.80
2009,07,05,09,43,19.70
2009,07,05,09,44,19.80
2009,07,05,09,45,19.80
2009,07,05,09,46,19.80
2009,07,05,09,47,19.80
2009,07,05,09,48,19.90
2009,07,05,09,49,19.90
2009,07,05,09,50,19.90
2009,07,05,09,51,20.10
2009,07,05,09,52,20.20
2009,07,05,09,53,20.30
2009,07,05,09,54,20.30
2009,07,05,09,55,20.30
2009,07,05,09,56,20.40
2009,07,05,09,57,20.40
2009,07,05,09,58,20.40
2009,07,05,09,59,20.50
2009,07,05,10,00,20.50
2009,07,05,10,01,20.50
2009,07,05,10,02,20.50
2009,07,05,10,03,20.60
2009,07,05,10,04,20.60
2009,07,05,10,05,20.60
2009,07,05,10,06,20.60
2009,07,05,10,07,20.60
2009,07,05,10,08,20.70
2009,07,05,10,09,20.70
2009,07,05,10,10,20.80
2009,07,05,10,11,20.90
2009,07,05,10,12,20.90
2009,07,05,10,13,21.00
2009,07,05,10,14,21.10
2009,07,05,10,15,21.20
2009,07,05,10,16,21.40
2009,07,05,10,17,21.40
2009,07,05,10,18,21.40
2009,07,05,10,19,21.50
2009,07,05,10,20,21.60
2009,07,05,10,21,21.70
2009,07,05,10,22,21.70
2009,07,05,10,23,21.70
2009,07,05,10,24,21.70
2009,07,05,10,25,21.80
2009,07,05,10,26,21.80
2009,07,05,10,27,21.80
2009,07,05,10,28,21.80
2009,07,05,10,29,21.90
2009,07,05,10,30,22.00
2009,07,05,10,31,22.20
2009,07,05,10,32,22.20
2009,07,05,10,33,22.20
2009,07,05,10,34,22.30
2009,07,05,10,35,22.30
2009,07,05,10,36,22.20
2009,07,05,10,37,22.20
2009,07,05,10,38,22.20
2009,07,05,10,39,22.20
2009,07,05,10,40,22.10
2009,07,05,10,41,22.10
2009,07,05,10,42,22.00
2009,07,05,10,43,22.00
2009,07,05,10,44,22.00
2009,07,05,10,45,22.00
2009,07,05,10,46,22.00
2009,07,05,10,47,22.10
2009,07,05,10,48,22.20
2009,07,05,10,49,22.10
2009,07,05,10,50,22.10
2009,07,05,10,51,22.20
2009,07,05,10,52,22.30
2009,07,05,10,53,22.40
2009,07,05,10,54,22.50
2009,07,05,10,55,22.50
2009,07,05,10,56,22.50
2009,07,05,10,57,22.50
2009,07,05,10,58,22.50
2009,07,05,10,59,22.60
2009,07,05,11,00,22.50
2009,07,05,11,01,22.40
2009,07,05,11,02,22.30
2009,07,05,11,03,22.20
2009,07,05,11,04,22.10
2009,07,05,11,05,22.00
2009,07,05,11,06,22.00
2009,07,05,11,07,22.00
2009,07,05,11,08,21.90
2009,07,05,11,09,21.90
2009,07,05,11,10,21.80
2009,07,05,11,11,21.80
2009,07,05,11,12,21.90
2009,07,05,11,13,21.90
2009,07,05,11,14,21.90
2009,07,05,11,15,21.90
2009,07,05,11,16,21.90
2009,07,05,11,17,22.00
2009,07,05,11,18,22.00
2009,07,05,11,19,22.10
2009,07,05,11,20,22.10
2009,07,05,11,21,22.10
2009,07,05,11,22,22.10
2009,07,05,11,23,22.10
2009,07,05,11,24,22.10
2009,07,05,11,25,22.00
2009,07,05,11,26,22.00
2009,07,05,11,27,22.00
2009,07,05,11,28,22.10
2009,07,05,11,29,22.20
2009,07,05,11,30,22.30
2009,07,05,11,31,22.40
2009,07,05,11,32,22.50
2009,07,05,11,33,22.60
2009,07,05,11,34,22.60
2009,07,05,11,35,22.50
2009,07,05,11,36,22.40
2009,07,05,11,37,22.40
2009,07,05,11,38,22.20
2009,07,05,11,39,22.10
2009,07,05,11,40,22.00
2009,07,05,11,41,22.00
2009,07,05,11,42,22.00
2009,07,05,11,43,22.00
2009,07,05,11,44,22.00
2009,07,05,11,45,21.90
2009,07,05,11,46,21.80
2009,07,05,11,47,21.80
2009,07,05,11,48,21.80
2009,07,05,11,49,21.80
2009,07,05,11,50,21.80
2009,07,05,11,51,21.90
2009,07,05,11,52,21.90
2009,07,05,11,53,21.80
2009,07,05,11,54,21.70
2009,07,05,11,55,21.60
2009,07,05,11,56,21.60
2009,07,05,11,57,21.70
2009,07,05,11,58,21.80
2009,07,05,11,59,21.90
2009,07,05,12,00,22.00
2009,07,05,12,01,22.10
2009,07,05,12,02,22.20
2009,07,05,12,03,22.20
2009,07,05,12,04,22.20
2009,07,05,12,05,22.20
2009,07,05,12,06,22.20
2009,07,05,12,07,22.30
2009,07,05,12,08,22.20
2009,07,05,12,09,22.20
2009,07,05,12,10,22.10
2009,07,05,12,11,22.00
2009,07,05,12,12,22.10
2009,07,05,12,13,22.20
2009,07,05,12,14,22.20
2009,07,05,12,15,22.30
2009,07,05,12,16,22.20
2009,07,05,12,17,22.20
2009,07,05,12,18,22.20
2009,07,05,12,19,22.30
2009,07,05,12,20,22.30
2009,07,05,12,21,22.40
2009,07,05,12,22,22.40
2009,07,05,12,23,22.50
2009,07,05,12,24,22.50
2009,07,05,12,25,22.40
2009,07,05,12,26,22.40
2009,07,05,12,27,22.30
2009,07,05,12,28,22.30
2009,07,05,12,29,22.20
2009,07,05,12,30,22.10
2009,07,05,12,31,22.10
2009,07,05,12,32,22.10
2009,07,05,12,33,22.20
2009,07,05,12,34,22.20
2009,07,05,12,35,22.30
2009,07,05,12,36,22.40
2009,07,05,12,37,22.50
2009,07,05,12,38,22.50
2009,07,05,12,39,22.60
2009,07,05,12,40,22.70
2009,07,05,12,41,22.80
2009,07,05,12,42,22.90
2009,07,05,12,43,23.10
2009,07,05,12,44,23.20
2009,07,05,12,45,23.30
2009,07,05,12,46,23.30
2009,07,05,12,47,23.30
2009,07,05,12,48,23.20
2009,07,05,12,49,23.10
2009,07,05,12,50,23.10
2009,07,05,12,51,23.10
2009,07,05,12,52,23.10
2009,07,05,12,53,23.20
2009,07,05,12,54,23.20
2009,07,05,12,55,23.20
2009,07,05,12,56,23.20
2009,07,05,12,57,23.20
2009,07,05,12,58,23.20
2009,07,05,12,59,23.20
2009,07,05,13,00,23.10
2009,07,05,13,01,23.00
2009,07,05,13,02,22.90
2009,07,05,13,03,22.90
2009,07,05,13,04,22.90
2009,07,05,13,05,22.90
2009,07,05,13,06,23.00
2009,07,05,13,07,23.20
2009,07,05,13,08,23.30
2009,07,05,13,09,23.30
2009,07,05,13,10,23.30
2009,07,05,13,11,23.30
2009,07,05,13,12,23.30
2009,07,05,13,13,23.20
2009,07,05,13,14,23.10
2009,07,05,13,15,23.10
2009,07,05,13,16,23.10
2009,07,05,13,17,23.20
2009,07,05,13,18,23.30
2009,07,05,13,19,23.50
2009,07,05,13,20,23.70
2009,07,05,13,21,23.80
2009,07,05,13,22,23.90
2009,07,05,13,23,24.00
2009,07,05,13,24,24.10
2009,07,05,13,25,23.90
2009,07,05,13,26,23.80
2009,07,05,13,27,23.70
2009,07,05,13,28,23.70
2009,07,05,13,29,23.70
2009,07,05,13,30,23.70
2009,07,05,13,31,23.90
2009,07,05,13,32,23.90
2009,07,05,13,33,24.00
2009,07,05,13,34,24.00
2009,07,05,13,35,23.90
2009,07,05,13,36,24.10
2009,07,05,13,37,24.10
2009,07,05,13,38,24.10
2009,07,05,13,39,24.20
2009,07,05,13,40,24.30
2009,07,05,13,41,24.40
2009,07,05,13,42,24.50
2009,07,05,13,43,24.50
2009,07,05,13,44,24.60
2009,07,05,13,45,24.80
2009,07,05,13,46,24.80
2009,07,05,13,47,24.90
2009,07,05,13,48,25.10
2009,07,05,13,49,25.20
2009,07,05,13,50,25.20
2009,07,05,13,51,25.20
2009,07,05,13,52,25.20
2009,07,05,13,53,25.20
2009,07,05,13,54,25.20
2009,07,05,13,55,24.90
2009,07,05,13,56,24.90
2009,07,05,13,57,25.00
2009,07,05,13,58,25.00
2009,07,05,13,59,25.10
2009,07,05,14,00,25.30
2009,07,05,14,01,25.30
2009,07,05,14,02,25.40
2009,07,05,14,03,25.50
2009,07,05,14,04,25.60
2009,07,05,14,05,25.80
2009,07,05,14,06,25.80
2009,07,05,14,07,25.90
2009,07,05,14,08,25.90
2009,07,05,14,09,26.00
2009,07,05,14,10,25.90
2009,07,05,14,11,26.00
2009,07,05,14,12,25.90
2009,07,05,14,13,26.00
2009,07,05,14,14,26.00
2009,07,05,14,15,26.00
2009,07,05,14,16,25.90
2009,07,05,14,17,25.80
2009,07,05,14,18,25.60
2009,07,05,14,19,25.40
2009,07,05,14,20,25.10
2009,07,05,14,21,24.90
2009,07,05,14,22,24.90
2009,07,05,14,23,24.90
2009,07,05,14,24,25.00
2009,07,05,14,25,25.10
2009,07,05,14,26,25.10
2009,07,05,14,27,25.20
2009,07,05,14,28,25.20
2009,07,05,14,29,25.10
2009,07,05,14,30,24.80
2009,07,05,14,31,24.50
2009,07,05,14,32,24.30
2009,07,05,14,33,24.20
2009,07,05,14,34,24.10
2009,07,05,14,35,24.10
2009,07,05,14,36,24.10
2009,07,05,14,37,24.10
2009,07,05,14,38,24.10
2009,07,05,14,39,24.00
2009,07,05,14,40,23.90
2009,07,05,14,41,23.70
2009,07,05,14,42,23.60
2009,07,05,14,43,23.50
2009,07,05,14,44,23.40
2009,07,05,14,45,23.30
2009,07,05,14,46,23.30
2009,07,05,14,47,23.30
2009,07,05,14,48,23.30
2009,07,05,14,49,23.30
2009,07,05,14,50,23.30
2009,07,05,14,51,23.30
2009,07,05,14,52,23.20
2009,07,05,14,53,23.20
2009,07,05,14,54,23.20
2009,07,05,14,55,23.20
2009,07,05,14,56,23.20
2009,07,05,14,57,23.10
2009,07,05,14,58,23.10
2009,07,05,14,59,23.20
2009,07,05,15,00,23.20
2009,07,05,15,01,23.10
2009,07,05,15,02,23.10
2009,07,05,15,03,23.00
2009,07,05,15,04,22.90
2009,07,05,15,05,22.90
2009,07,05,15,06,22.70
2009,07,05,15,07,22.60
2009,07,05,15,08,22.60
2009,07,05,15,09,22.60
2009,07,05,15,10,22.70
2009,07,05,15,11,22.80
2009,07,05,15,12,22.90
2009,07,05,15,13,23.00
2009,07,05,15,14,23.10
2009,07,05,15,15,23.20
2009,07,05,15,16,23.40
2009,07,05,15,17,23.40
2009,07,05,15,18,23.40
2009,07,05,15,19,23.30
2009,07,05,15,20,23.30
2009,07,05,15,21,23.20
2009,07,05,15,22,23.10
2009,07,05,15,23,23.10
2009,07,05,15,24,23.10
2009,07,05,15,25,23.00
2009,07,05,15,26,22.90
2009,07,05,15,27,22.80
2009,07,05,15,28,22.70
2009,07,05,15,29,22.60
2009,07,05,15,30,22.60
2009,07,05,15,31,22.70
2009,07,05,15,32,22.60
2009,07,05,15,33,22.60
2009,07,05,15,34,22.40
2009,07,05,15,35,22.40
2009,07,05,15,36,22.30
2009,07,05,15,37,22.20
2009,07,05,15,38,22.30
2009,07,05,15,39,22.40
2009,07,05,15,40,22.50
2009,07,05,15,41,22.60
2009,07,05,15,42,22.60
2009,07,05,15,43,22.70
2009,07,05,15,44,22.70
2009,07,05,15,45,22.60
2009,07,05,15,46,22.60
2009,07,05,15,47,22.70
2009,07,05,15,48,22.80
2009,07,05,15,49,22.80
2009,07,05,15,50,22.90
2009,07,05,15,51,23.10
2009,07,05,15,52,23.20
2009,07,05,15,53,23.30
2009,07,05,15,54,23.30
2009,07,05,15,55,23.30
2009,07,05,15,56,23.30
2009,07,05,15,57,23.30
2009,07,05,15,58,23.20
2009,07,05,15,59,23.20
2009,07,05,16,00,23.20
2009,07,05,16,01,23.10
2009,07,05,16,02,23.00
2009,07,05,16,03,23.00
2009,07,05,16,04,23.10
2009,07,05,16,05,23.00
2009,07,05,16,06,23.00
2009,07,05,16,07,23.10
2009,07,05,16,08,23.10
2009,07,05,16,09,23.20
2009,07,05,16,10,23.30
2009,07,05,16,11,23.20
2009,07,05,16,12,23.20
2009,07,05,16,13,23.20
2009,07,05,16,14,23.30
2009,07,05,16,15,23.30
2009,07,05,16,16,23.20
2009,07,05,16,17,23.20
2009,07,05,16,18,23.10
2009,07,05,16,19,23.10
2009,07,05,16,20,23.10
2009,07,05,16,21,23.10
2009,07,05,16,22,23.00
2009,07,05,16,23,22.90
2009,07,05,16,24,22.90
2009,07,05,16,25,22.80
2009,07,05,16,26,22.70
2009,07,05,16,27,22.60
2009,07,05,16,28,22.60
2009,07,05,16,29,22.50
2009,07,05,16,30,22.50
2009,07,05,16,31,22.50
2009,07,05,16,32,22.50
2009,07,05,16,33,22.60
2009,07,05,16,34,22.60
2009,07,05,16,35,22.80
2009,07,05,16,36,22.90
2009,07,05,16,37,23.00
2009,07,05,16,38,23.10
2009,07,05,16,39,23.10
2009,07,05,16,40,23.10
2009,07,05,16,41,23.10
2009,07,05,16,42,23.10
2009,07,05,16,43,23.10
2009,07,05,16,44,23.10
2009,07,05,16,45,23.10
2009,07,05,16,46,23.10
2009,07,05,16,47,23.10
2009,07,05,16,48,23.10
2009,07,05,16,49,23.20
2009,07,05,16,50,23.20
2009,07,05,16,51,23.30
2009,07,05,16,52,23.30
2009,07,05,16,53,23.30
2009,07,05,16,54,23.30
2009,07,05,16,55,23.30
2009,07,05,16,56,23.30
2009,07,05,16,57,23.30
2009,07,05,16,58,23.30
2009,07,05,16,59,23.30
2009,07,05,17,00,23.30
2009,07,05,17,01,23.30
2009,07,05,17,02,23.30
2009,07,05,17,03,23.30
2009,07,05,17,04,23.30
2009,07,05,17,05,23.30
2009,07,05,17,06,23.30
2009,07,05,17,07,23.30
2009,07,05,17,08,23.30
2009,07,05,17,09,23.30
2009,07,05,17,10,23.30
2009,07,05,17,11,23.30
2009,07,05,17,12,23.30
2009,07,05,17,13,23.30
2009,07,05,17,14,23.30
2009,07,05,17,15,23.30
2009,07,05,17,16,23.30
2009,07,05,17,17,23.30
2009,07,05,17,18,23.30
2009,07,05,17,19,23.30